TimeCET,TemperatureF,Dew PointF,Humidity,Sea Level PressureIn,VisibilityMPH,Wind Direction,Wind SpeedMPH,Gust SpeedMPH,PrecipitationIn,Events,Conditions,WindDirDegrees,DateUTC
1:00 AM,55,55,100,29.98,,Calm,Calm,,,,,,2012-11-02 00:00:00
5:00 AM,51.8,51.8,100,29.98,-9999.0,Variable,1.2,-,N/A,,Clear,0,2012-11-02 04:00:00
5:30 AM,53.6,53.6,100,29.98,-9999.0,Calm,Calm,-,N/A,,Clear,0,2012-11-02 04:30:00
6:00 AM,53.6,53.6,100,29.98,-9999.0,Calm,Calm,-,N/A,,Clear,0,2012-11-02 05:00:00
6:30 AM,51.8,51.8,100,29.98,6.2,Variable,1.2,-,N/A,,Partly Cloudy,0,2012-11-02 05:30:00
7:00 AM,53,53,99,30.00,16,ENE,2.3,,,,Mostly Cloudy,70,2012-11-02 06:00:00
7:00 AM,53.6,53.6,100,29.98,6.2,Variable,1.2,-,N/A,,Mostly Cloudy,0,2012-11-02 06:00:00
7:30 AM,53.6,53.6,100,30.01,6.2,Variable,1.2,-,N/A,,Mostly Cloudy,0,2012-11-02 06:30:00
8:00 AM,55.4,55.4,100,30.01,6.2,Variable,1.2,-,N/A,,Mostly Cloudy,0,2012-11-02 07:00:00
8:30 AM,55.4,55.4,100,30.01,6.2,Calm,Calm,-,N/A,,Mostly Cloudy,0,2012-11-02 07:30:00
9:00 AM,57.2,57.2,100,30.01,6.2,Calm,Calm,-,N/A,,Mostly Cloudy,0,2012-11-02 08:00:00
9:30 AM,59.0,57.2,94,30.04,6.2,Calm,Calm,-,N/A,,Scattered Clouds,0,2012-11-02 08:30:00
10:00 AM,59.0,57.2,94,30.04,6.2,Calm,Calm,-,N/A,,Mostly Cloudy,0,2012-11-02 09:00:00
10:30 AM,59.0,57.2,94,30.04,6.2,Variable,2.3,-,N/A,,Mostly Cloudy,0,2012-11-02 09:30:00
11:00 AM,60.8,59.0,94,30.04,6.2,Variable,2.3,-,N/A,,Mostly Cloudy,0,2012-11-02 10:00:00
11:30 AM,62.6,59.0,88,30.04,6.2,East,3.5,-,N/A,,Mostly Cloudy,90,2012-11-02 10:30:00
12:00 PM,62.6,59.0,88,30.04,6.2,East,3.5,-,N/A,,Mostly Cloudy,90,2012-11-02 11:00:00
12:30 PM,64.4,59.0,83,30.04,6.2,East,4.6,-,N/A,,Mostly Cloudy,90,2012-11-02 11:30:00
1:00 PM,67,58,64,30.01,19,East,8.1,,,,Scattered Clouds,100,2012-11-02 12:00:00
1:00 PM,66.2,55.4,68,30.01,6.2,East,6.9,-,N/A,,Mostly Cloudy,100,2012-11-02 12:00:00
1:30 PM,68.0,53.6,60,30.01,6.2,East,6.9,-,N/A,,Mostly Cloudy,100,2012-11-02 12:30:00
2:00 PM,68.0,51.8,56,29.98,6.2,East,6.9,-,N/A,,Mostly Cloudy,90,2012-11-02 13:00:00
2:30 PM,69.8,53.6,56,29.98,6.2,East,5.8,-,N/A,,Scattered Clouds,100,2012-11-02 13:30:00
3:00 PM,68.0,53.6,60,29.98,6.2,East,4.6,-,N/A,,Scattered Clouds,90,2012-11-02 14:00:00
3:30 PM,68.0,55.4,64,29.95,6.2,East,5.8,-,N/A,,Scattered Clouds,80,2012-11-02 14:30:00
4:00 PM,68.0,57.2,68,29.95,6.2,East,5.8,-,N/A,,Mostly Cloudy,90,2012-11-02 15:00:00
4:30 PM,68.0,59.0,73,29.95,6.2,East,3.5,-,N/A,Rain,Light Rain,90,2012-11-02 15:30:00
5:00 PM,68.0,60.8,78,29.95,6.2,East,3.5,-,N/A,,Mostly Cloudy,100,2012-11-02 16:00:00
5:30 PM,66.2,59.0,78,29.92,6.2,East,3.5,-,N/A,,Mostly Cloudy,100,2012-11-02 16:30:00
6:00 PM,66.2,60.8,83,29.92,4.3,Variable,2.3,-,N/A,Rain,Rain,0,2012-11-02 17:00:00
6:30 PM,64.4,62.6,94,29.92,6.2,Variable,2.3,-,N/A,Rain,Rain,0,2012-11-02 17:30:00
7:00 PM,64.4,62.6,94,29.92,6.2,East,3.5,-,N/A,,Mostly Cloudy,100,2012-11-02 18:00:00
7:30 PM,64.4,62.6,94,29.92,6.2,ESE,4.6,-,N/A,Rain,Rain,120,2012-11-02 18:30:00
8:00 PM,62.6,62.6,100,29.92,5.0,SSE,6.9,-,N/A,Rain,Rain,150,2012-11-02 19:00:00
8:30 PM,62.6,62.6,100,29.92,5.0,SSW,4.6,-,N/A,Rain,Light Rain,210,2012-11-02 19:30:00
9:00 PM,64.4,62.6,94,29.92,5.0,South,5.8,-,N/A,Rain,Light Rain,180,2012-11-02 20:00:00
9:30 PM,66.2,66.2,100,29.92,3.7,South,8.1,-,N/A,,Drizzle,190,2012-11-02 20:30:00
10:00 PM,66.2,66.2,100,29.92,6.2,SSW,8.1,-,N/A,,Light Drizzle,200,2012-11-02 21:00:00
10:10 PM,66.2,66.2,100,29.92,6.2,SSW,8.1,-,N/A,Rain,Rain,200,2012-11-02 21:10:00
10:30 PM,68.0,68.0,100,29.92,6.2,SSW,15.0,-,N/A,Rain,Light Rain,210,2012-11-02 21:30:00
11:00 PM,68.0,68.0,100,29.92,3.7,SSW,17.3,-,N/A,,Light Drizzle,210,2012-11-02 22:00:00